Location: Acheville
(50.3840°N, 2.8827°E)
Time: 15:40:56
(UTC+00:00)

NOSS 8 (H) - Pass Details

Date: 24 October 2021
Orbit: 372 x 1792 km, 63.3° (Epoch: 27 November)

Event Time Altitude Azimuth Distance (km) Brightness Sun altitude
Rises 18:31:18 0° 223° (SW) 2,476 8.7 -18.6°
Reaches altitude 10° 18:33:32 10° 224° (SW) 1,496 7.6 -18.9°
Enters shadow 18:36:40 86° 288° (WNW) 389 4.0 -19.4°
